Overview Statistics Trail Chart Weather Telemetry Raw packets
 

This is the latest recevied weather packets stored in our database for station/object DC1MPP-9. If no packets are shown the sender has not sent any weather packets the latest 10 day(s).

<< 79 80 81 82 83 84 85 >>
Time Temp. Humidity Pressure Rain* Wind** Luminosity Snow
1787996775 25.56° C 60% 961 hPa - - - -
1787996542 26.11° C 56% 961 hPa - - - -
1787996293 26.11° C 62% 961 hPa - - - -
1787996052 26.11° C 58% 961 hPa - - - -
1787995811 25.56° C 60% 961 hPa - - - -
1787995329 25° C 60% 961 hPa - - - -
1787995088 25° C 65% 961 hPa - - - -
1787994606 24.44° C 63% 961 hPa - - - -
1787994365 24.44° C 63% 961 hPa - - - -
1787994124 24.44° C 65% 961 hPa - - - -
1787993882 24.44° C 73% 961 hPa - - - -
1787993641 23.89° C 61% 961 hPa - - - -
1787993400 23.89° C 70% 961 hPa - - - -
1787993159 23.33° C 69% 961 hPa - - - -
1787992918 23.33° C 75% 961 hPa - - - -
1787992677 23.89° C 79% 961 hPa - - - -
1787992436 23.89° C 83% 961 hPa - - - -
1787992195 23.33° C 78% 961 hPa - - - -
1787991713 22.78° C 86% 961 hPa - - - -
1787991472 22.22° C 81% 961 hPa - - - -
1787991231 22.78° C 92% 961 hPa - - - -
1787990990 22.22° C 95% 961 hPa - - - -
1787990749 22.22° C 99% 961 hPa - - - -
1787990508 21.67° C 95% 961 hPa - - - -
1787990266 21.11° C 90% 961 hPa - - - -

* Rain since midnight (hover to see other rain measurements)
** Current wind speed in m/s (hover to see current wind gust speed)